Flag for U.S.A. Weather past 2 weeks in Fort Wayne, Indiana, U.S.A.

Now
32 °F

Light snow. Ice fog.


Feels Like: 25 °F
Forecast: 19 / 31 °F
Wind: 8 mph from Southwest

Location: Fort Wayne International Airport

Current Time: Feb 1, 2015 at 2:11:35 AM

Latest Report: Feb 1, 2015 at 1:54 AM


Visibility: 1 mi

Pressure: 30.19 "Hg

Humidity: 96%

Dew point: 31 °F

Location of Fort WayneLocation

Historic Weather in Fort Wayne — Graph

°F

Fort Wayne temperature yesterday

Maximum temperature yesterday: 36 °F (at 2:54 PM)
Minimum temperature yesterday: 16 °F (at 2:54 AM)
Average temperature yesterday: 28 °F

Past Weeks' High & Low Weather Summary

 TemperatureHumidityPressure
High42 °F (Jan 17, 1:54 PM)100% (Jan 19, 9:54 AM)30.51 "Hg (Jan 19, 9:54 AM)
Low6 °F (Jan 28, 5:54 AM)55% (Jan 27, 2:54 PM)29.67 "Hg (Jan 24, 2:54 PM)
Average28 °F81%30.06 "Hg
* Reported Jan 17 12:54 AM — Feb 1 12:54 AM, Fort Wayne, Weather by CustomWeather, © 2014

Note: Actual official high and low records may vary slightly from our data, if they occured in-between our weather recording intervals... More about our weather records

Advertising

Fort Wayne weather history for previous 24 hours

 ConditionsComfort  
Time TempWeatherWind HumidityBarometerVisibility
12:54 AM
Feb 1
33 °FLight snow. Fog.7 mph92%30.20 "Hg1 mi
11:54 PM
Jan 31
32 °FLight snow. Low clouds.7 mph96%30.21 "Hg1 mi
10:54 PM33 °FLight snow. Fog.6 mph92%30.21 "Hg2 mi
9:54 PM34 °FOvercast.8 mph82%30.21 "Hg10 mi
8:54 PM35 °FOvercast.10 mph75%30.22 "Hg10 mi
7:54 PM34 °FOvercast.8 mph79%30.24 "Hg10 mi
6:54 PM34 °FMostly cloudy.7 mph76%30.24 "Hg10 mi
5:54 PM35 °FOvercast.10 mph72%30.23 "Hg10 mi
4:54 PM35 °FOvercast.10 mph70%30.23 "Hg10 mi
3:54 PM35 °FOvercast.12 mph70%30.24 "Hg10 mi
2:54 PM36 °FPartly sunny.16 mph64%30.24 "Hg10 mi
1:54 PM35 °FPartly sunny.12 mph67%30.25 "Hg10 mi
12:54 PM34 °FPartly sunny.14 mph67%30.29 "Hg10 mi
11:54 AM32 °FPartly sunny.14 mph66%30.32 "Hg10 mi
10:54 AM30 °FSunny.14 mph69%30.33 "Hg10 mi
9:54 AM26 °FScattered clouds.12 mph74%30.34 "Hg10 mi
8:54 AM22 °FPassing clouds.7 mph85%30.35 "Hg10 mi
7:54 AM20 °FBroken clouds.8 mph85%30.35 "Hg10 mi
6:54 AM21 °FPassing clouds.8 mph85%30.35 "Hg10 mi
5:54 AM18 °FPassing clouds.7 mph84%30.36 "Hg10 mi
4:54 AM16 °FPassing clouds.7 mph87%30.37 "Hg10 mi
3:54 AM16 °FClear.8 mph87%30.37 "Hg10 mi
2:54 AM16 °FClear.7 mph84%30.40 "Hg10 mi
Weather by CustomWeather, © 2014

See weather overviewHow to use our weather pages